Wind_Speed
17 18 18 19 20 21 22 23 24 25 26 26 27 28 28 29 29 29 28 28 27 26 25 24 24 23 23 23 24 24 24 24 24 23 22 21 20 20 19 18 18 18 17 17 16 16 15 14 14 13 13 14 15 15 16 17 18 19 20 20 21 22 23 23 24 24 24 25 25
18 18 19 20 21 22 23 25 26 27 27 28 28 28 28 29 28 28 27 26 25 25 24 23 23 23 23 23 23 24 24 24 23 22 21 21 20 19 19 18 18 17 17 16 16 15 14 14 14 14 15 15 16 17 18 18 19 20 21 22 22 23 23 24 24 25 25 25 25
18 19 20 21 22 24 25 26 27 28 28 28 29 29 29 28 27 26 26 25 24 23 23 22 22 22 23 23 24 24 24 24 23 22 21 20 20 19 19 18 18 17 17 16 15 14 14 14 14 15 16 17 18 18 19 20 20 21 21 22 23 23 24 24 25 25 25 25 25
19 20 21 22 23 25 26 27 28 29 29 29 29 29 28 27 26 25 24 24 23 22 22 22 22 23 23 24 24 24 24 24 23 22 21 20 20 19 18 18 17 17 16 15 14 14 14 14 15 16 17 18 19 20 20 21 21 21 22 22 23 23 24 24 24 24 24 24 24
19 20 22 23 25 26 28 28 29 29 30 29 29 28 27 26 25 24 23 23 22 22 22 22 22 23 24 24 24 24 24 24 23 22 22 20 19 18 18 17 17 16 15 15 14 14 14 15 16 17 18 19 20 20 20 21 21 21 22 22 22 23 23 24 24 24 23 23 23
20 21 23 24 26 27 29 29 30 29 29 28 27 26 25 25 24 23 22 22 21 21 21 22 22 23 24 24 24 24 24 24 23 22 21 20 19 18 17 17 16 16 15 14 14 14 14 15 17 18 19 19 20 20 20 20 21 21 22 22 22 23 23 23 23 23 23 23 23
20 22 24 26 27 28 29 29 29 29 28 27 26 25 24 24 23 22 22 21 21 21 21 22 22 23 24 24 24 24 24 24 23 22 21 19 18 17 16 16 15 15 14 14 14 14 15 16 17 18 20 20 20 20 20 20 21 21 22 22 23 23 23 23 23 23 22 22 23
21 22 24 26 28 29 29 29 28 27 27 26 25 24 23 23 22 22 21 21 21 21 21 22 22 23 24 24 24 24 24 23 22 21 20 19 18 17 16 15 15 14 14 14 15 15 16 17 18 19 20 21 21 21 20 21 21 22 22 23 23 23 22 22 22 22 22 22 23
21 23 25 26 28 28 29 28 27 26 25 25 24 23 23 22 22 21 21 21 21 21 21 22 22 23 23 24 24 24 24 23 22 21 20 18 17 16 15 15 14 14 14 15 15 16 17 18 18 19 20 21 21 21 21 21 22 22 23 23 23 23 22 22 21 21 21 22 22
21 23 25 27 28 28 28 27 27 26 25 24 24 23 23 22 22 21 21 20 20 20 21 21 22 23 23 24 24 24 24 23 22 21 20 18 17 16 15 15 14 14 15 15 16 17 18 18 19 20 20 20 21 21 21 21 22 23 23 23 23 22 22 21 21 21 21 22 22
21 23 25 26 27 28 28 27 26 25 25 24 24 23 23 22 21 21 20 20 20 20 21 21 22 23 23 24 24 24 23 23 22 21 19 18 16 15 15 14 14 14 15 15 16 17 18 19 19 20 20 20 20 21 21 22 22 22 23 23 22 22 21 21 21 21 21 22 22
21 23 25 26 27 28 28 27 26 25 25 24 23 23 22 22 21 20 20 20 19 20 21 22 22 23 23 23 23 23 23 22 21 20 19 18 16 15 14 14 14 14 15 15 16 17 18 19 19 20 20 20 20 21 21 22 22 22 22 22 22 22 22 22 22 21 21 22 23
21 23 25 26 28 28 28 27 26 26 25 24 23 23 22 21 21 20 20 19 19 20 21 22 22 23 23 23 23 23 22 22 21 20 18 17 16 15 15 14 14 14 14 15 16 17 18 19 19 20 20 21 21 21 22 22 22 22 23 22 22 22 23 23 23 23 23 23 23
21 23 25 26 28 28 28 28 27 26 25 24 23 23 22 21 20 20 19 19 19 20 21 21 22 22 23 23 23 22 21 21 20 19 18 17 16 16 15 15 14 14 15 15 16 17 18 19 20 20 21 21 22 22 22 22 23 23 23 23 23 23 24 24 24 24 24 24 25
22 23 25 27 28 29 29 28 27 26 25 24 23 22 22 21 20 20 19 19 19 20 21 21 22 22 22 22 22 21 21 20 19 19 18 18 17 16 16 16 15 15 16 16 17 17 18 19 20 20 21 21 22 22 22 23 23 23 24 24 24 24 24 25 25 25 25 25 26
22 24 25 27 28 29 29 28 27 26 24 23 23 22 21 21 20 20 19 19 19 20 20 21 21 22 21 21 21 20 20 19 18 18 18 18 18 17 17 16 16 16 16 17 17 18 18 18 19 20 20 21 22 22 23 23 23 24 24 24 25 25 25 25 26 26 26 26 26
22 24 26 27 28 29 29 28 27 26 24 23 22 22 21 21 20 19 19 19 19 20 20 20 21 21 21 20 19 19 19 18 18 18 18 18 18 17 17 17 16 17 17 17 18 18 18 18 18 19 20 21 21 22 23 23 24 24 24 25 25 25 25 25 25 26 26 26 26
23 24 26 27 28 28 28 28 27 26 24 23 22 22 21 20 20 19 19 19 19 19 19 20 20 20 20 20 19 18 18 18 18 18 17 17 17 17 17 16 16 16 17 17 18 18 18 18 18 19 20 20 21 22 23 23 24 24 25 25 25 25 25 25 25 25 25 26 26
23 24 26 27 27 28 28 27 26 25 24 23 22 21 21 20 19 19 19 18 18 19 19 19 19 19 19 19 19 18 18 18 18 17 17 17 16 16 16 16 16 17 17 17 18 18 18 18 19 19 20 21 22 23 23 24 24 24 25 25 25 25 25 25 25 25 25 25 25
23 24 25 26 26 27 27 27 26 25 23 22 21 21 20 19 19 18 18 18 18 18 18 19 19 19 19 19 19 18 17 17 17 17 17 16 16 16 16 17 17 17 17 18 18 19 19 19 20 20 21 22 22 23 23 24 24 25 25 25 25 25 25 25 26 26 25 25 25
23 24 25 25 26 26 26 26 25 24 23 22 21 20 19 19 19 18 18 18 18 18 18 18 18 19 19 19 19 18 18 17 17 17 17 17 16 16 16 17 17 18 18 19 19 19 20 20 21 21 22 23 23 24 24 24 25 25 25 25 25 25 25 26 26 27 27 27 27
23 24 24 25 25 25 25 25 24 23 22 21 20 19 19 19 18 18 18 17 17 17 17 18 18 18 19 19 19 19 18 18 17 17 17 17 17 17 17 17 18 18 19 19 20 21 21 21 22 22 23 24 24 25 25 25 25 25 25 25 25 26 26 26 27 27 28 28 28
23 23 24 25 25 25 25 24 23 22 21 20 19 19 19 18 18 18 17 17 17 17 17 17 18 18 19 19 19 19 19 19 18 18 17 17 17 17 17 18 18 19 20 20 21 22 22 23 23 24 24 25 25 25 26 26 25 25 25 25 25 26 26 26 27 27 28 29 29
22 23 24 24 25 24 24 23 22 21 20 19 19 18 18 18 18 18 17 17 17 17 17 17 18 18 19 19 19 20 20 20 20 19 19 18 18 18 18 19 19 20 21 21 22 22 23 24 25 25 26 26 26 26 26 26 26 26 26 26 26 26 26 27 27 28 28 29 29
22 23 23 24 24 24 23 22 22 21 19 19 18 18 18 18 18 18 17 17 17 17 17 17 18 18 19 19 20 20 20 21 21 21 20 20 19 19 19 20 20 21 22 22 22 23 23 24 25 26 26 27 27 27 27 26 26 26 26 26 26 26 27 28 28 28 28 29 29
22 22 23 24 24 23 23 22 21 20 19 19 18 18 18 18 18 18 17 17 17 17 17 17 18 19 19 20 20 21 21 21 21 21 21 21 20 20 20 20 21 22 22 23 23 23 24 24 25 25 26 27 27 27 27 27 27 26 26 27 27 27 27 28 28 29 29 29 30
22 22 23 23 23 23 22 22 21 20 19 18 18 18 18 18 18 18 17 17 17 17 17 18 18 19 19 20 21 21 22 22 22 22 22 21 21 21 21 21 22 22 23 23 23 24 25 25 26 26 27 27 27 28 27 27 27 27 27 27 27 28 28 29 29 30 30 31 31
21 22 22 23 23 23 22 22 21 20 19 18 18 18 18 18 18 18 17 17 17 17 18 18 18 19 19 20 21 22 22 23 23 22 22 22 22 22 22 22 22 23 23 24 24 25 26 26 27 27 28 28 28 28 28 28 28 28 28 28 28 29 29 29 30 30 31 32 32
21 21 22 22 22 23 22 22 21 20 19 18 18 18 18 18 18 18 17 17 17 18 18 18 19 19 19 20 21 22 23 23 23 23 23 22 22 22 22 22 23 23 24 24 25 26 27 27 28 28 29 29 29 29 29 28 29 29 29 29 29 29 29 30 30 31 32 32 33
21 21 22 22 22 22 22 21 21 20 19 18 18 18 17 18 18 18 18 18 17 17 18 18 19 19 20 20 21 22 23 24 24 24 23 23 22 22 22 22 23 24 24 25 26 26 27 28 29 30 30 29 29 29 29 29 29 29 30 30 30 30 30 30 31 31 32 32 34
21 22 22 23 23 22 22 21 20 19 19 18 18 17 17 17 17 17 18 18 18 18 18 18 19 19 20 21 21 22 23 24 25 25 24 23 23 22 22 22 23 24 24 25 26 27 28 29 30 30 30 30 30 30 29 29 29 29 29 29 29 30 31 31 31 32 32 33 34
22 22 23 23 23 22 21 21 20 19 18 17 17 17 17 17 17 17 18 18 18 18 18 18 19 19 20 21 22 23 24 25 26 26 25 24 23 22 22 23 23 24 24 25 26 27 29 30 31 31 31 31 30 30 30 30 30 30 30 30 30 30 31 32 32 33 33 33 34
22 22 23 23 23 22 21 20 19 18 18 17 16 17 17 17 17 17 18 18 18 18 18 19 19 19 20 21 22 23 24 25 26 26 25 24 23 22 22 23 23 24 24 25 26 28 29 31 31 32 31 31 31 31 30 30 30 30 31 31 31 31 32 32 32 32 32 32 31
23 23 23 23 23 22 21 20 19 18 17 16 16 16 17 17 17 18 18 18 18 18 18 18 19 19 20 21 23 24 25 26 26 26 25 23 22 22 22 23 23 24 24 25 26 28 29 30 31 32 32 31 31 31 31 31 31 32 32 32 32 32 32 31 31 31 30 29 27
23 23 23 23 22 21 21 20 19 18 17 16 15 16 17 17 17 18 18 18 18 18 18 18 19 19 20 22 23 24 25 26 27 26 25 23 22 22 22 23 23 24 24 25 26 28 29 29 30 31 31 31 32 32 32 32 33 33 33 33 32 32 31 30 29 28 26 24 22
23 23 23 22 22 21 20 20 19 17 16 15 15 16 17 17 18 18 18 18 18 18 18 18 19 20 20 22 23 24 26 26 27 26 24 23 23 22 22 22 23 24 24 25 26 27 28 28 28 29 30 31 32 32 33 33 33 33 33 32 31 30 29 28 27 25 22 20 18
22 23 22 22 21 21 20 19 18 17 15 15 15 16 17 18 18 18 18 18 18 18 18 18 19 20 21 22 23 25 26 27 26 25 24 23 22 22 22 22 23 24 25 26 27 27 28 28 28 28 29 30 32 32 33 33 33 33 32 31 30 29 28 26 24 22 19 17 16
22 22 22 22 21 21 20 19 18 16 15 14 15 16 17 18 19 19 18 17 17 18 18 18 19 20 21 22 24 25 26 27 26 25 24 23 22 22 22 23 24 25 26 26 27 27 28 28 28 28 29 30 31 31 32 32 31 31 30 30 29 28 27 25 23 21 19 17 15
22 22 21 21 21 20 20 18 17 16 15 15 15 16 18 19 19 19 18 17 17 17 18 19 19 20 22 23 25 26 27 27 26 24 23 22 22 22 22 23 24 25 26 26 27 27 28 28 29 29 29 29 29 29 29 29 29 29 28 28 27 26 25 24 24 22 20 18 17
21 21 21 21 21 20 19 18 16 15 15 15 15 16 18 19 19 18 17 16 16 17 18 19 20 21 22 24 25 26 26 26 25 23 22 22 22 22 22 23 24 25 26 26 27 27 28 28 28 29 28 28 26 26 26 27 27 27 26 25 24 23 22 22 23 23 22 21 19
21 21 21 20 20 20 19 18 16 15 14 14 15 17 18 19 18 17 16 16 16 17 18 19 20 22 23 24 26 26 26 25 23 22 21 21 21 22 23 23 24 25 26 26 26 27 27 28 28 28 27 26 24 23 24 25 25 25 24 22 21 20 21 21 22 22 22 22 21
Wind_Direction
1 1 1 1 1 1 360 359 358 356 355 354 353 352 350 350 349 349 349 350 350 351 351 351 352 352 352 351 350 350 350 350 351 351 351 352 353 354 355 355 355 354 354 352 352 352 351 351 351 352 352 351 351 350 350 350 348 346 345 344 342 340 339 338 338 337 337 338 339
3 2 2 2 1 0 359 358 356 355 354 353 352 351 350 349 349 349 349 350 350 351 351 351 352 352 352 351 351 351 351 350 351 351 352 352 354 355 356 356 355 355 354 352 351 351 351 350 350 351 351 350 350 349 348 348 347 346 345 344 343 342 341 340 339 339 339 340 341
3 3 3 2 1 359 358 357 356 354 353 352 351 350 349 349 349 349 349 350 350 351 351 352 352 353 352 352 351 351 351 351 351 351 352 353 355 356 356 356 355 353 352 350 349 348 348 348 349 349 349 348 348 348 348 347 347 347 346 345 344 343 342 342 341 341 341 342 343
3 3 2 1 360 358 356 355 354 353 351 351 350 349 349 349 349 349 350 350 351 351 352 353 353 353 353 352 352 352 351 351 351 351 352 353 354 355 355 355 354 351 349 347 345 345 344 345 346 347 347 347 347 347 348 347 347 348 347 347 345 344 343 342 342 342 342 343 344
3 2 1 359 358 356 355 354 353 352 351 350 350 349 349 349 349 350 350 351 351 352 352 353 353 353 353 353 352 352 351 351 350 350 351 351 353 354 354 353 352 349 346 343 341 340 340 341 343 345 346 346 346 346 347 347 348 348 348 347 346 345 344 342 342 342 342 342 343
2 0 359 358 357 356 355 354 353 352 351 350 349 349 349 349 349 350 350 351 351 351 352 352 353 352 352 352 352 351 351 350 349 349 349 350 351 352 353 351 349 346 342 339 336 336 337 339 340 342 344 345 345 345 346 347 347 347 348 348 347 345 344 342 341 341 341 341 342
1 359 358 357 356 356 355 354 353 352 351 350 349 349 349 349 350 350 350 350 350 351 351 352 352 352 351 351 351 350 350 349 348 348 348 348 349 350 350 348 345 342 337 334 332 332 333 336 338 339 341 342 343 344 345 346 346 346 347 347 346 344 343 342 340 340 340 340 341
360 359 358 357 357 356 355 354 353 352 351 350 349 349 349 350 350 350 349 349 350 350 350 350 351 351 351 350 350 349 349 348 347 347 347 347 348 348 348 346 342 337 332 329 327 327 329 332 335 337 338 340 341 342 343 344 344 344 345 345 344 343 342 340 339 338 338 338 339
358 358 358 357 357 356 355 354 353 352 351 350 350 350 350 350 349 349 349 349 349 349 349 349 350 350 350 349 349 348 348 348 347 347 346 347 346 346 345 342 338 332 327 324 323 323 325 327 331 333 336 337 338 340 340 341 342 342 342 342 342 341 340 339 337 336 336 336 337
357 357 357 357 357 357 356 355 354 352 352 351 350 349 349 349 349 349 348 348 348 348 348 348 349 349 349 349 349 348 348 348 347 347 346 346 346 345 343 340 336 330 324 321 319 319 321 324 328 331 334 336 337 338 338 339 339 340 340 340 339 339 337 335 334 333 333 334 334
356 356 357 358 358 358 357 356 354 353 352 351 350 349 349 348 348 347 347 347 347 347 348 348 348 349 349 349 349 348 348 347 347 347 346 346 345 344 343 340 336 330 324 320 319 319 321 324 328 332 334 336 337 336 336 336 336 337 337 337 336 335 333 332 331 330 330 331 332
355 355 356 358 359 359 358 357 355 353 352 350 349 348 348 347 346 346 346 346 347 347 347 347 348 349 349 349 349 348 347 347 347 347 346 346 344 344 342 340 337 332 326 323 321 322 324 327 331 333 335 336 336 335 334 333 333 333 333 333 332 331 330 328 327 327 327 328 330
354 355 357 358 359 359 359 357 355 353 351 350 348 347 346 346 345 345 345 346 346 346 347 348 349 349 349 349 348 348 347 347 346 346 346 345 344 342 341 339 336 333 329 326 325 326 328 331 334 335 335 335 334 332 331 330 330 329 329 329 329 328 327 326 326 325 325 326 327
354 355 357 358 359 360 359 357 355 352 351 349 347 346 346 345 345 344 345 345 345 346 347 349 350 350 350 349 348 347 346 346 345 345 345 343 342 340 338 337 335 332 330 328 328 329 332 333 334 334 333 332 331 329 328 328 327 326 326 326 326 326 326 326 326 325 325 325 325
353 354 356 358 359 359 358 356 354 352 350 348 347 346 345 344 344 344 344 344 345 346 347 349 350 350 350 349 347 346 345 344 343 343 342 340 339 337 336 334 332 331 330 329 330 331 333 334 333 332 330 329 328 327 326 326 325 324 324 323 324 325 325 326 326 326 325 324 324
352 354 355 357 358 358 357 355 353 351 349 348 346 346 345 344 343 343 343 344 344 346 347 349 349 349 349 348 347 345 343 341 340 339 338 337 336 335 334 333 332 331 331 331 332 332 333 333 331 329 328 327 326 326 325 324 323 322 322 322 323 323 324 325 325 324 324 323 323
352 353 355 356 357 357 356 354 352 350 349 347 346 345 345 344 343 343 343 343 343 345 347 348 349 349 348 346 345 343 340 338 336 336 335 335 334 334 333 333 333 333 332 332 332 332 331 330 329 327 326 326 325 325 324 323 322 321 321 321 321 322 322 321 321 320 320 321 321
351 353 354 355 355 355 354 352 351 349 348 347 346 345 344 343 342 342 342 342 343 344 346 347 348 348 347 345 342 340 338 336 334 333 334 334 333 333 333 333 333 332 332 331 330 329 328 328 327 326 326 325 325 325 324 323 322 321 320 320 319 319 318 317 315 315 315 316 318
351 352 353 354 354 353 352 351 350 348 347 346 345 344 343 342 341 340 340 341 341 343 345 346 347 347 346 344 341 339 336 335 333 333 333 333 333 332 332 331 330 330 329 328 328 327 326 326 325 325 325 325 324 324 323 322 322 320 320 319 317 316 314 312 310 309 309 311 314
350 351 353 353 352 351 350 349 348 347 346 345 344 343 342 341 340 339 339 339 340 342 344 346 347 346 345 343 341 338 336 334 333 332 332 332 332 331 329 328 328 327 327 326 326 326 326 325 325 325 324 324 324 323 323 322 321 320 318 317 315 313 311 308 306 305 306 308 312
349 350 351 351 350 349 348 347 346 345 344 343 342 341 340 339 338 337 337 336 338 340 343 345 345 345 344 343 340 338 336 334 333 331 330 330 329 328 327 326 325 325 326 326 327 327 327 326 325 325 324 324 323 323 323 322 321 319 317 314 313 312 310 309 307 306 306 308 310
347 348 349 349 349 347 346 345 345 344 343 341 340 339 338 337 336 335 334 335 337 339 341 343 344 344 344 343 341 339 336 334 332 330 329 328 327 326 326 325 325 326 327 328 328 328 328 327 326 325 324 324 324 324 324 323 321 318 315 313 312 312 312 311 310 308 308 308 309
346 347 347 347 347 346 345 344 343 342 341 339 338 337 335 334 333 333 333 334 335 337 339 341 342 343 343 343 342 340 337 334 332 330 328 327 326 326 326 326 326 327 328 329 330 330 329 328 327 326 325 324 324 325 325 324 322 318 315 313 312 312 312 312 311 309 308 308 308
344 344 345 345 345 344 343 342 341 340 338 337 335 333 332 332 331 331 331 332 334 335 337 338 340 341 342 342 342 340 338 335 333 331 329 328 327 327 327 328 328 329 329 330 330 330 329 328 327 326 325 325 325 325 325 324 322 319 317 315 313 312 311 310 310 309 308 308 307
342 342 342 343 343 342 341 340 339 338 336 334 332 330 329 329 329 329 330 331 333 334 335 336 337 338 340 341 341 340 339 337 334 332 330 329 329 328 328 328 328 328 329 329 329 328 327 327 326 325 325 324 324 325 324 323 322 320 318 316 314 311 310 309 309 309 308 308 307
340 340 341 341 342 341 339 338 337 335 333 331 329 327 327 327 327 328 329 330 332 333 333 334 334 336 337 339 340 340 339 337 335 333 331 330 329 328 328 327 326 326 327 327 326 326 325 325 325 325 324 324 323 323 323 322 321 320 318 316 314 312 310 310 310 310 309 309 308
338 338 339 339 340 339 338 336 334 332 330 328 326 325 324 324 325 327 328 330 330 331 331 332 332 333 335 336 337 338 338 337 336 334 332 330 328 327 326 326 325 324 324 324 324 324 324 324 325 325 324 324 323 322 322 321 320 319 318 316 314 313 312 312 312 311 311 310 310
335 336 336 337 338 338 336 334 332 330 327 325 323 322 322 322 324 325 327 328 329 329 329 330 330 331 333 334 335 336 337 337 336 334 332 330 328 327 326 324 324 323 322 322 322 323 324 324 325 325 324 323 322 321 320 320 319 318 317 316 316 315 314 313 313 313 312 312 311
333 333 334 335 335 336 335 332 330 327 324 322 321 320 320 321 322 324 325 327 327 327 328 328 328 329 330 331 332 334 335 336 336 334 333 330 328 326 325 323 322 322 321 321 322 322 323 324 325 325 324 323 322 321 320 319 319 318 318 317 317 316 315 315 314 314 313 312 311
330 330 331 332 333 334 333 330 327 324 322 320 318 318 318 319 321 323 324 325 325 325 326 326 327 327 327 328 330 331 333 335 335 335 334 331 328 326 324 322 321 321 321 321 321 322 323 324 324 324 323 323 322 321 320 320 319 319 319 318 318 317 317 316 315 314 313 311 310
327 327 328 329 331 331 331 328 325 322 319 317 316 315 316 317 319 321 322 323 323 324 324 324 324 324 324 326 327 329 331 333 335 335 334 332 329 325 322 321 320 320 320 320 321 322 323 324 324 324 323 322 322 321 320 320 320 320 319 318 318 317 317 316 315 313 311 310 309
324 324 325 327 329 329 329 327 324 320 317 314 313 313 314 316 317 319 320 321 322 323 323 323 322 322 322 323 325 327 329 331 333 334 334 332 328 324 321 319 319 319 319 321 322 323 323 323 323 323 323 322 322 321 321 320 320 319 319 318 317 316 316 315 314 313 312 311 310
321 322 323 325 327 328 327 325 322 318 314 312 312 312 313 315 316 317 318 319 321 322 322 322 321 321 321 322 323 325 327 330 332 333 333 330 327 323 320 318 318 319 320 321 322 323 323 323 323 323 323 322 322 322 321 320 319 318 318 317 316 316 315 314 314 313 313 313 312
319 320 321 323 325 326 325 323 319 315 312 310 311 312 312 313 314 315 317 318 319 320 321 321 320 319 319 320 322 323 326 329 331 332 331 329 325 322 320 318 319 319 320 322 323 323 323 323 323 323 323 323 322 321 320 319 318 317 316 316 316 315 315 315 315 315 315 316 316
317 319 320 322 323 324 323 321 317 313 311 310 311 311 311 311 312 313 315 316 318 320 320 320 319 318 318 319 321 323 326 328 331 331 330 327 324 322 320 319 319 320 321 323 323 323 323 323 323 323 323 322 322 320 319 318 317 316 316 316 316 317 317 317 318 318 319 320 321
317 318 319 321 322 322 321 318 314 312 310 311 311 311 310 310 310 311 313 315 317 319 320 319 318 317 318 319 321 323 326 328 330 330 328 326 324 322 320 320 320 321 322 323 323 323 323 323 324 323 322 321 320 319 318 317 316 316 317 318 318 319 319 319 320 321 322 323 324
316 317 318 319 320 320 318 315 313 311 311 311 311 311 310 309 309 309 311 313 317 319 320 319 318 318 318 319 322 324 326 328 329 329 328 326 324 322 321 321 321 322 323 323 323 323 323 323 323 322 321 320 319 318 317 316 316 317 318 319 320 320 321 322 323 324 325 325 324
316 317 317 318 318 317 315 313 311 311 311 311 311 311 310 309 308 308 310 313 317 319 319 319 319 319 319 321 323 325 327 328 328 328 327 325 323 322 322 322 322 323 323 323 323 323 323 323 323 323 322 320 319 318 317 318 318 319 320 321 322 323 324 325 327 327 327 325 322
317 317 316 316 315 314 312 311 311 311 311 311 312 312 311 310 308 308 311 314 318 319 319 319 319 319 320 322 323 326 327 328 328 327 326 325 324 323 323 323 323 323 323 323 323 324 324 325 325 325 324 323 321 320 320 319 320 321 322 325 327 328 329 329 330 331 330 327 324
317 316 315 314 313 312 311 311 311 311 312 313 314 314 312 310 308 309 312 316 319 320 319 319 318 319 320 322 324 326 327 327 327 327 326 325 325 324 324 324 324 324 324 324 325 326 327 327 328 327 327 327 325 323 322 321 322 323 326 329 331 331 331 329 330 331 332 331 329
317 315 314 312 310 310 311 312 311 311 312 313 315 315 312 310 309 311 315 319 320 319 318 317 318 319 320 322 324 326 327 328 327 327 327 326 326 325 325 325 325 325 326 327 328 329 330 331 331 331 330 330 329 326 324 324 325 328 330 333 333 331 328 327 327 329 332 333 332
Height
1555 1555 1554 1554 1553 1553 1552 1551 1551 1550 1550 1549 1548 1547 1546 1545 1544 1543 1542 1541 1540 1539 1538 1537 1536 1535 1534 1533 1532 1531 1530 1529 1528 1527 1526 1525 1524 1523 1522 1521 1520 1519 1518 1517 1517 1516 1515 1514 1513 1513 1512 1511 1510 1509 1508 1507 1506 1505 1504 1503 1502 1501 1500 1498 1497 1496 1495 1494 1492
1555 1554 1554 1553 1552 1552 1551 1550 1550 1549 1548 1547 1546 1545 1545 1544 1543 1542 1540 1540 1539 1538 1537 1536 1535 1534 1533 1532 1531 1530 1529 1528 1526 1525 1525 1524 1523 1522 1521 1520 1519 1518 1517 1516 1515 1515 1514 1513 1513 1512 1511 1510 1509 1508 1507 1506 1505 1504 1503 1502 1501 1500 1498 1497 1496 1495 1494 1492 1491
1554 1553 1553 1552 1551 1551 1550 1550 1549 1548 1547 1546 1545 1544 1543 1542 1541 1540 1540 1539 1538 1537 1536 1535 1534 1533 1532 1531 1530 1529 1528 1526 1525 1525 1524 1523 1521 1520 1520 1519 1518 1517 1516 1515 1515 1514 1513 1512 1512 1511 1510 1509 1508 1507 1506 1505 1504 1503 1502 1501 1500 1498 1497 1496 1495 1494 1492 1491 1490
1553 1553 1552 1551 1551 1550 1550 1549 1548 1547 1546 1545 1544 1543 1542 1541 1540 1540 1539 1538 1537 1536 1535 1534 1533 1532 1531 1530 1529 1527 1526 1525 1525 1524 1523 1521 1521 1520 1519 1518 1517 1516 1515 1515 1514 1513 1512 1512 1511 1510 1509 1508 1507 1506 1505 1504 1503 1502 1501 1500 1499 1498 1496 1495 1494 1493 1492 1490 1489
1552 1552 1551 1551 1550 1549 1548 1548 1547 1546 1545 1544 1543 1542 1541 1540 1539 1538 1538 1537 1536 1535 1534 1533 1532 1531 1530 1529 1528 1527 1525 1525 1524 1523 1522 1521 1520 1519 1518 1517 1516 1515 1515 1514 1513 1512 1512 1511 1510 1509 1508 1507 1506 1505 1504 1503 1502 1501 1500 1499 1498 1497 1495 1494 1493 1492 1491 1490 1488
1552 1551 1550 1550 1549 1548 1547 1546 1545 1545 1544 1543 1542 1541 1540 1539 1538 1538 1537 1536 1535 1534 1533 1532 1531 1530 1529 1528 1527 1526 1525 1524 1523 1522 1521 1520 1519 1518 1517 1516 1515 1515 1514 1513 1513 1512 1511 1510 1509 1508 1507 1506 1505 1504 1503 1502 1501 1500 1499 1498 1497 1496 1495 1493 1492 1491 1490 1489 1487
1551 1550 1550 1549 1548 1547 1547 1545 1545 1544 1543 1542 1541 1540 1540 1539 1538 1537 1536 1535 1534 1533 1532 1531 1530 1529 1528 1527 1526 1525 1524 1523 1522 1521 1520 1519 1518 1517 1517 1516 1515 1514 1514 1513 1512 1511 1510 1509 1509 1507 1506 1505 1505 1503 1502 1501 1500 1499 1498 1497 1496 1495 1494 1492 1491 1490 1489 1488 1486
1550 1550 1549 1549 1548 1547 1546 1545 1544 1543 1542 1541 1540 1540 1539 1538 1537 1536 1535 1534 1533 1532 1531 1530 1529 1528 1527 1526 1525 1524 1523 1522 1521 1520 1520 1519 1518 1517 1516 1515 1515 1514 1513 1512 1511 1510 1509 1508 1508 1507 1506 1505 1504 1502 1501 1500 1499 1498 1497 1496 1495 1494 1493 1491 1490 1489 1488 1486 1485
1550 1549 1549 1548 1547 1546 1545 1545 1544 1543 1542 1540 1540 1539 1538 1537 1536 1535 1534 1533 1532 1531 1530 1529 1528 1527 1526 1525 1525 1524 1523 1522 1520 1520 1519 1518 1517 1516 1515 1515 1514 1513 1512 1511 1510 1510 1509 1508 1507 1506 1505 1504 1503 1501 1500 1500 1498 1497 1496 1495 1494 1493 1491 1490 1489 1488 1486 1485 1484
1549 1549 1548 1547 1546 1545 1545 1544 1543 1542 1540 1540 1539 1538 1537 1536 1535 1534 1533 1532 1531 1530 1529 1528 1527 1526 1525 1525 1524 1522 1521 1520 1520 1519 1518 1517 1516 1515 1515 1514 1513 1512 1511 1510 1510 1509 1508 1507 1506 1505 1504 1503 1502 1500 1499 1498 1497 1496 1495 1494 1493 1491 1490 1489 1488 1487 1485 1484 1483
1549 1548 1547 1547 1546 1545 1544 1543 1542 1540 1540 1539 1537 1536 1535 1535 1534 1533 1532 1531 1530 1529 1528 1527 1526 1525 1524 1523 1522 1521 1520 1520 1519 1518 1517 1516 1515 1515 1514 1513 1512 1511 1510 1510 1509 1508 1507 1506 1505 1504 1503 1502 1501 1500 1498 1497 1496 1495 1494 1493 1491 1490 1489 1488 1487 1485 1484 1483 1482
1548 1547 1547 1546 1545 1544 1543 1542 1541 1540 1539 1537 1536 1535 1535 1534 1533 1532 1531 1530 1529 1528 1527 1526 1525 1524 1523 1522 1521 1520 1520 1518 1518 1517 1516 1515 1514 1514 1513 1512 1511 1510 1510 1509 1508 1507 1506 1505 1504 1503 1502 1501 1500 1499 1497 1496 1495 1494 1493 1491 1490 1489 1488 1487 1485 1484 1483 1482 1480
1547 1546 1546 1545 1544 1543 1542 1541 1540 1539 1538 1536 1535 1535 1534 1533 1532 1531 1530 1529 1528 1527 1526 1525 1524 1523 1522 1521 1520 1519 1518 1518 1517 1516 1515 1514 1513 1513 1512 1511 1510 1510 1509 1508 1507 1506 1505 1504 1503 1501 1500 1500 1499 1497 1496 1495 1494 1492 1491 1490 1489 1488 1486 1485 1484 1483 1482 1480 1479
1546 1545 1545 1544 1543 1542 1541 1540 1539 1538 1537 1535 1535 1534 1533 1532 1531 1530 1529 1528 1527 1526 1525 1524 1523 1522 1521 1520 1519 1518 1517 1517 1516 1515 1514 1513 1512 1512 1511 1510 1510 1509 1508 1507 1506 1505 1504 1503 1501 1500 1499 1498 1497 1496 1495 1494 1493 1491 1490 1489 1487 1486 1485 1484 1483 1481 1480 1479 1478
1545 1544 1544 1543 1542 1541 1540 1539 1538 1537 1535 1535 1534 1533 1532 1531 1530 1529 1528 1527 1526 1525 1524 1523 1522 1521 1520 1520 1519 1517 1516 1515 1515 1514 1513 1512 1512 1511 1510 1509 1508 1508 1507 1506 1505 1504 1503 1502 1500 1499 1498 1497 1496 1495 1494 1493 1491 1490 1489 1487 1486 1485 1484 1482 1481 1480 1479 1478 1476
1544 1543 1542 1541 1540 1540 1539 1538 1537 1535 1535 1534 1532 1531 1530 1530 1529 1528 1527 1526 1525 1524 1523 1522 1521 1520 1519 1518 1518 1517 1516 1515 1514 1513 1512 1511 1511 1510 1509 1508 1507 1506 1505 1505 1504 1503 1502 1501 1500 1498 1497 1496 1495 1494 1493 1491 1490 1489 1487 1486 1485 1484 1482 1481 1480 1479 1477 1476 1475
1543 1542 1541 1540 1539 1538 1537 1536 1535 1535 1533 1532 1531 1530 1530 1528 1527 1526 1526 1525 1524 1523 1522 1521 1520 1520 1519 1517 1517 1516 1515 1514 1513 1512 1512 1511 1510 1509 1508 1507 1506 1505 1505 1503 1502 1501 1500 1500 1498 1497 1496 1495 1494 1492 1491 1490 1489 1487 1486 1485 1484 1482 1481 1480 1479 1477 1476 1475 1474
1541 1540 1540 1539 1538 1537 1536 1535 1534 1533 1532 1531 1530 1529 1528 1527 1526 1525 1525 1524 1523 1522 1521 1520 1519 1519 1518 1517 1516 1515 1514 1513 1512 1512 1511 1510 1509 1508 1507 1506 1505 1504 1503 1502 1501 1500 1499 1498 1497 1496 1495 1494 1492 1491 1490 1489 1487 1486 1485 1483 1482 1481 1480 1478 1477 1476 1475 1473 1472
1540 1539 1539 1538 1537 1536 1535 1534 1533 1532 1531 1530 1529 1528 1527 1526 1525 1525 1524 1523 1522 1521 1520 1519 1518 1518 1517 1516 1515 1514 1513 1512 1511 1511 1510 1509 1508 1507 1506 1505 1504 1503 1502 1501 1500 1499 1498 1497 1496 1495 1494 1492 1491 1490 1488 1487 1486 1485 1483 1482 1481 1480 1478 1477 1476 1474 1473 1472 1470
1539 1538 1537 1536 1536 1535 1534 1533 1532 1530 1530 1529 1528 1527 1526 1525 1524 1524 1523 1522 1521 1520 1519 1519 1518 1517 1516 1515 1514 1513 1512 1511 1510 1510 1509 1508 1507 1506 1505 1504 1503 1502 1501 1500 1499 1498 1497 1495 1495 1493 1492 1491 1490 1488 1487 1485 1484 1483 1482 1480 1479 1478 1477 1475 1474 1473 1471 1470 1469
1538 1537 1536 1535 1535 1534 1533 1532 1530 1530 1528 1527 1527 1526 1525 1524 1523 1523 1522 1521 1520 1519 1518 1517 1517 1516 1515 1514 1513 1512 1511 1510 1510 1509 1508 1507 1506 1505 1504 1503 1502 1501 1500 1499 1498 1496 1495 1494 1493 1492 1491 1489 1488 1487 1485 1484 1483 1481 1480 1479 1478 1476 1475 1474 1473 1471 1470 1469 1467
1536 1536 1535 1534 1533 1533 1531 1530 1529 1528 1527 1526 1525 1525 1524 1523 1522 1522 1521 1520 1519 1518 1517 1517 1516 1515 1514 1513 1512 1511 1510 1510 1509 1508 1507 1506 1505 1504 1503 1502 1501 1500 1499 1497 1496 1495 1494 1493 1492 1490 1489 1488 1486 1485 1484 1482 1481 1480 1479 1477 1476 1475 1474 1472 1471 1470 1469 1467 1466
1535 1535 1534 1533 1532 1531 1530 1529 1528 1527 1526 1525 1525 1524 1523 1522 1521 1521 1520 1519 1518 1517 1516 1516 1515 1514 1513 1512 1511 1510 1509 1508 1507 1507 1506 1505 1504 1503 1502 1500 1500 1498 1497 1496 1495 1494 1492 1491 1490 1489 1487 1486 1485 1484 1482 1481 1480 1478 1477 1475 1474 1473 1472 1470 1470 1468 1467 1465 1464
1534 1533 1533 1532 1531 1530 1529 1528 1527 1526 1525 1525 1524 1523 1522 1521 1520 1520 1519 1518 1517 1516 1515 1515 1514 1513 1512 1511 1510 1510 1508 1507 1506 1505 1505 1504 1503 1501 1500 1499 1498 1497 1496 1495 1494 1492 1491 1490 1488 1487 1486 1484 1483 1482 1480 1479 1478 1476 1475 1474 1472 1471 1470 1469 1467 1466 1465 1463 1462
1533 1532 1531 1531 1530 1529 1528 1527 1526 1525 1524 1524 1523 1522 1521 1520 1520 1519 1518 1517 1516 1515 1515 1514 1513 1512 1511 1510 1509 1509 1507 1506 1505 1504 1503 1502 1501 1500 1499 1498 1497 1496 1495 1493 1492 1491 1490 1489 1487 1486 1484 1483 1481 1480 1479 1477 1476 1475 1473 1472 1470 1469 1468 1466 1465 1464 1463 1461 1460
1532 1531 1530 1529 1529 1528 1527 1526 1525 1524 1523 1522 1522 1521 1520 1519 1519 1518 1517 1516 1515 1515 1514 1513 1512 1511 1510 1509 1508 1507 1506 1505 1504 1503 1502 1501 1500 1499 1498 1497 1495 1494 1493 1492 1491 1490 1489 1487 1486 1485 1483 1482 1480 1478 1477 1476 1474 1473 1471 1470 1469 1467 1466 1464 1463 1461 1460 1459 1458
1530 1530 1529 1528 1527 1526 1525 1525 1524 1523 1522 1521 1520 1520 1519 1518 1517 1517 1516 1515 1514 1513 1513 1512 1511 1510 1509 1508 1507 1506 1505 1504 1503 1502 1501 1500 1498 1497 1496 1495 1494 1493 1492 1490 1489 1488 1487 1486 1485 1483 1482 1480 1479 1477 1475 1474 1473 1471 1470 1468 1467 1465 1464 1462 1461 1459 1458 1456 1455
1529 1529 1528 1527 1526 1525 1524 1523 1522 1522 1521 1520 1519 1519 1518 1517 1516 1515 1515 1514 1513 1512 1511 1511 1510 1509 1508 1507 1506 1505 1504 1503 1502 1500 1500 1498 1497 1496 1495 1494 1493 1491 1490 1489 1488 1486 1485 1484 1483 1481 1480 1479 1477 1476 1474 1473 1471 1470 1468 1467 1465 1463 1462 1460 1459 1457 1455 1454 1452
1528 1527 1527 1526 1525 1524 1523 1522 1521 1520 1520 1519 1518 1517 1517 1516 1515 1515 1514 1513 1512 1511 1510 1510 1509 1508 1507 1506 1505 1504 1503 1502 1500 1499 1498 1497 1496 1495 1494 1492 1491 1490 1489 1487 1486 1485 1484 1482 1481 1480 1478 1477 1475 1474 1472 1471 1469 1468 1466 1465 1463 1461 1460 1458 1456 1455 1453 1451 1450
1527 1526 1525 1525 1524 1523 1522 1521 1520 1519 1518 1518 1517 1516 1515 1515 1514 1513 1512 1512 1511 1510 1510 1509 1508 1507 1506 1505 1504 1503 1501 1500 1499 1498 1497 1495 1495 1493 1492 1491 1490 1489 1487 1486 1485 1483 1482 1480 1479 1478 1476 1475 1474 1472 1470 1469 1467 1466 1464 1463 1461 1460 1458 1456 1455 1453 1451 1450 1448
1526 1525 1524 1523 1523 1522 1521 1520 1519 1518 1517 1516 1515 1515 1514 1514 1513 1512 1511 1510 1510 1509 1508 1508 1507 1506 1505 1504 1503 1501 1500 1499 1498 1497 1495 1494 1493 1492 1491 1490 1489 1487 1486 1484 1483 1481 1480 1479 1477 1476 1475 1473 1472 1470 1469 1467 1465 1464 1462 1461 1459 1457 1456 1454 1452 1451 1449 1447 1445
1525 1524 1523 1522 1521 1520 1520 1519 1518 1517 1516 1515 1515 1514 1513 1512 1512 1511 1510 1510 1509 1508 1507 1506 1505 1505 1504 1502 1501 1500 1499 1498 1497 1495 1494 1493 1492 1491 1490 1488 1487 1486 1485 1483 1481 1480 1478 1477 1475 1474 1473 1471 1470 1468 1466 1465 1463 1462 1460 1459 1457 1455 1454 1452 1450 1449 1447 1445 1444
1523 1523 1522 1521 1520 1519 1518 1517 1516 1515 1515 1514 1513 1513 1512 1511 1510 1510 1509 1508 1508 1507 1506 1505 1504 1503 1502 1501 1500 1499 1498 1497 1495 1494 1493 1492 1490 1489 1488 1487 1486 1485 1483 1482 1480 1478 1477 1475 1474 1472 1470 1469 1467 1466 1465 1463 1461 1460 1458 1457 1455 1454 1452 1450 1449 1447 1445 1443 1442
1522 1521 1520 1519 1519 1518 1517 1516 1515 1514 1513 1513 1512 1511 1511 1510 1509 1509 1508 1507 1506 1506 1505 1504 1503 1502 1501 1500 1499 1497 1496 1495 1494 1493 1492 1490 1489 1488 1487 1486 1485 1483 1482 1480 1479 1477 1475 1474 1472 1470 1469 1467 1465 1464 1462 1461 1459 1458 1456 1455 1453 1452 1450 1449 1447 1445 1443 1441 1440
1520 1520 1519 1518 1517 1516 1515 1514 1514 1513 1512 1511 1511 1510 1510 1509 1508 1507 1507 1506 1505 1505 1504 1503 1502 1501 1500 1499 1498 1496 1495 1494 1493 1491 1490 1489 1488 1487 1485 1485 1483 1482 1480 1479 1478 1476 1474 1472 1470 1469 1467 1465 1463 1462 1460 1459 1457 1456 1454 1453 1451 1450 1448 1446 1445 1443 1441 1440 1438
1519 1518 1517 1516 1515 1515 1514 1513 1512 1511 1510 1510 1510 1509 1508 1508 1507 1506 1505 1505 1504 1503 1503 1502 1501 1500 1499 1498 1496 1495 1494 1493 1491 1490 1489 1488 1487 1485 1484 1483 1482 1480 1479 1478 1476 1475 1473 1471 1470 1468 1465 1464 1462 1460 1459 1457 1455 1454 1452 1450 1449 1447 1446 1444 1443 1441 1440 1439 1437
1517 1516 1516 1515 1514 1513 1512 1511 1510 1510 1509 1509 1508 1508 1507 1506 1506 1505 1504 1504 1503 1502 1501 1500 1500 1499 1497 1496 1495 1494 1493 1491 1490 1489 1488 1486 1485 1484 1483 1482 1480 1479 1478 1476 1475 1474 1472 1470 1469 1467 1465 1463 1461 1459 1457 1455 1453 1451 1450 1448 1447 1445 1444 1442 1441 1440 1439 1437 1436
1516 1515 1514 1513 1513 1512 1511 1510 1509 1508 1508 1507 1507 1506 1506 1505 1505 1504 1503 1502 1501 1501 1500 1499 1498 1497 1496 1495 1494 1493 1491 1490 1489 1487 1486 1485 1484 1483 1482 1480 1479 1478 1476 1475 1474 1472 1470 1469 1467 1466 1464 1462 1460 1457 1455 1453 1451 1450 1448 1446 1445 1443 1442 1441 1440 1438 1437 1436 1435
1514 1513 1513 1512 1511 1510 1509 1508 1508 1507 1506 1506 1505 1505 1504 1504 1503 1502 1502 1501 1500 1500 1499 1498 1497 1496 1495 1494 1492 1491 1490 1489 1487 1486 1485 1484 1483 1481 1480 1479 1478 1476 1475 1474 1472 1471 1469 1468 1466 1464 1462 1460 1458 1455 1453 1451 1450 1448 1447 1445 1444 1442 1440 1439 1438 1437 1435 1434 1433
1513 1512 1511 1510 1510 1509 1508 1507 1506 1505 1505 1505 1504 1504 1503 1502 1502 1501 1500 1500 1499 1498 1497 1497 1496 1495 1494 1492 1491 1490 1489 1487 1486 1485 1484 1483 1481 1480 1479 1478 1477 1475 1474 1472 1471 1470 1468 1466 1465 1462 1460 1459 1456 1454 1452 1450 1448 1447 1445 1444 1443 1441 1440 1438 1437 1435 1434 1433 1432
1511 1510 1509 1509 1508 1507 1506 1505 1505 1504 1504 1503 1503 1502 1502 1501 1500 1500 1499 1499 1498 1497 1496 1495 1495 1494 1492 1491 1490 1489 1488 1486 1485 1484 1483 1481 1480 1479 1478 1477 1475 1474 1473 1471 1470 1468 1467 1465 1463 1461 1459 1457 1455 1453 1451 1449 1447 1446 1444 1443 1442 1440 1439 1437 1436 1434 1433 1432 1431